Location: Kapuskasing
(49.3803°N, 82.4001°W)
Time: 09:58:59
(UTC-04:00)

Envisat - Pass Details

Date: 22 March 2026
Orbit: 761 x 762 km, 98.4° (Epoch: 19 April)

Event Time Altitude Azimuth Distance (km) Brightness Sun altitude
Rises 05:55:24 0° 3° (N) 3,237 6.6 -15.6°
Reaches altitude 10° 05:58:24 10° 344° (NNW) 2,306 5.5 -15.1°
Maximum altitude 06:01:40 18° 304° (NW) 1,827 4.6 -14.6°
Enters shadow 06:02:58 16° 285° (WNW) 1,907 4.6 -14.4°
